This demonstration page uses our WeatherBlox Daily Observations layout. Learn more.

Left ArrowRight Arrow

39.08367, -84.50855

Hourly Observations for November 26, 2015

Temp ( °F °C ) Dew Point ( °F °C ) Humidity (%) Winds ( mph kmh ) Pressure ( in mb ) Visibility ( mi km ) Precip ( " mm )
12:53 am 00:53 Clear 36 2.2 34 1.1 93 93 S 5 7 30.48 1032 10 16 0.00 0.00
1:53 am 01:53 Mostly Clear 36 2.2 35 1.7 97 97 Calm 30.49 1033 10 16 0.00 0.00
2:53 am 02:53 Clear 37 2.8 35 1.7 93 93 Calm 30.50 1033 10 16 0.00 0.00
3:53 am 03:53 Clear 37 2.8 35 1.7 93 93 Calm 30.50 1033 10 16 0.00 0.00
4:53 am 04:53 Clear 36 2.2 35 1.7 97 97 Calm 30.51 1033 10 16 0.00 0.00
5:53 am 05:53 Mostly Cloudy 37 2.8 35 1.7 93 93 Calm 30.53 1034 10 16 0.00 0.00
6:53 am 06:53 Cloudy 45 7.2 37 2.8 74 74 W 3 6 30.54 1034 10 16 0.00 0.00
7:53 am 07:53 Cloudy 46 7.8 37 2.8 71 71 WSW 3 6 30.57 1035 10 16 0.00 0.00
8:53 am 08:53 Mostly Cloudy 48 8.9 39 3.9 71 71 W 5 7 30.58 1035 10 16 0.00 0.00
9:53 am 09:53 Cloudy 50 10 40 4.4 68 68 W 3 6 30.58 1036 10 16 0.00 0.00
10:53 am 10:53 Cloudy 56 13.3 41 5 57 57 S 9 15 30.57 1035 10 16 0.00 0.00
11:53 am 11:53 Partly Cloudy 59 15 42 5.6 54 54 S 12 19 30.55 1034 10 16 0.00 0.00
12:53 pm 12:53 Sunny 62 16.7 43 6.1 50 50 S 12 19 30.52 1033 10 16 0.00 0.00
1:53 pm 13:53 Mostly Cloudy 65 18.3 45 7.2 49 49 S 14 22 30.48 1032 10 16 0.00 0.00
2:53 pm 14:53 Sunny 66 18.9 45 7.2 47 47 S 13 20 30.45 1031 10 16 0.00 0.00
3:53 pm 15:53 Sunny 65 18.3 45 7.2 49 49 S 10 17 30.44 1031 10 16 0.00 0.00
4:53 pm 16:53 Sunny 63 17.2 44 6.7 50 50 S 12 19 30.44 1031 10 16 0.00 0.00
5:53 pm 17:53 Clear 59 15 43 6.1 56 56 S 6 9 30.45 1031 10 16 0.00 0.00
6:53 pm 18:53 Clear 57 13.9 43 6.1 60 60 WSW 3 6 30.44 1031 10 16 0.00 0.00
7:53 pm 19:53 Clear 52 11.1 43 6.1 72 72 WSW 3 6 30.44 1031 10 16 0.00 0.00
8:53 pm 20:53 Clear 46 7.8 42 5.6 86 86 W 5 7 30.44 1031 10 16 0.00 0.00
9:53 pm 21:53 Clear 49 9.4 42 5.6 77 77 Calm 30.44 1031 10 16 0.00 0.00
10:53 pm 22:53 Clear 53 11.7 42 5.6 66 66 SSW 6 9 30.44 1031 10 16 0.00 0.00
11:53 pm 23:53 Clear 52 11.1 42 5.6 69 69 SSW 6 9 30.43 1031 10 16 0.00 0.00

Powered by AerisWeather